Modesto, CA

2:40 AM PDT on June 25, 2017 (GMT -0700)
Modesto City-County-Sham

Weather History for KMOD - May, 2014

Change the Weather History Date:

Thursday, May 15, 2014

  Actual Average Record
Temperature  
Mean Temperature 80 °F -  
Max Temperature 99 °F 83 °F 101 °F (2008)
Min Temperature 60 °F 55 °F 40 °F (1943)
Degree Days  
Heating Degree Days 0 1  
Month to date heating degree days 9 22  
Since 1 July heating degree days 1966 2156  
Cooling Degree Days 15 5  
Month to date cooling degree days 73 58  
Year to date cooling degree days 134 102  
Growing Degree Days 30 (Base 50)    
Moisture  
Dew Point 34 °F    
Average Humidity 31    
Maximum Humidity 56    
Minimum Humidity 6    
Precipitation  
Precipitation 0.00 in 0.02 in 1.38 in (1995)
Month to date precipitation 0.01 0.35  
Year to date precipitation 5.51 8.35  
Since 1 July precipitation 7.00  
Snow  
Snow 0.00 in - - ()
Month to date snowfall 0.0  
Since 1 July snowfall 0.0  
Snow Depth -    
Sea Level Pressure  
Sea Level Pressure 30.02 in    
Wind  
Wind Speed 6 mph (NNW)    
Max Wind Speed 16 mph    
Max Gust Speed 20 mph    
Visibility 10 miles    
Events      
T = Trace of Precipitation, MM = Missing Value Source: NWS Daily Summary

Daily Weather History Graph

Daily Weather History Graph

Search for Another Location

Airport or City:

Trip Planner

Search our weather history database for the weather conditions in past years. The results will help you decide how hot, cold, wet, or windy it might be!

Date:

Astronomy

May. 15, 2014 Rise Set
Actual Time 5:54 AM PDT 8:06 PM PDT
Civil Twilight 5:24 AM PDT 8:35 PM PDT
Nautical Twilight 4:48 AM PDT 9:12 PM PDT
Astronomical Twilight 4:09 AM PDT 9:51 PM PDT
Moon 9:19 PM PDT (5/15) 6:45 AM PDT (5/15)
Length of Visible Light 15h 11m
Length of Day
14h 12m
Full, 99% of the Moon is Illuminated
May 15
Full
May 21
Last Quarter
May 28
New
Jun 5
First Quarter
Jun 12
Full

Hourly Weather History & Observations

Time (PDT) Temp. Dew Point Humidity Pressure Visibility Wind Dir Wind Speed Gust Speed Precip Events Conditions
12:53 AM 73.0 °F 46.0 °F 38% 30.04 in 10.0 mi North 4.6 mph - N/A   Clear
1:53 AM 72.0 °F 42.1 °F 34% 30.04 in 10.0 mi North 4.6 mph - N/A   Clear
2:53 AM 70.0 °F 39.0 °F 32% 30.03 in 10.0 mi NE 3.5 mph - N/A   Clear
3:53 AM 69.1 °F 37.0 °F 31% 30.03 in 10.0 mi NE 3.5 mph - N/A   Clear
4:53 AM 64.0 °F 46.0 °F 52% 30.03 in 10.0 mi North - - N/A   Clear
5:53 AM 61.0 °F 45.0 °F 56% 30.04 in 10.0 mi Calm Calm - N/A   Clear
6:53 AM 63.0 °F 46.9 °F 56% 30.06 in 10.0 mi Calm Calm - N/A   Clear
7:53 AM 73.0 °F 45.0 °F 37% 30.06 in 10.0 mi Calm Calm - N/A   Clear
8:53 AM 80.1 °F 39.9 °F 24% 30.07 in 10.0 mi North 3.5 mph - N/A   Clear
9:53 AM 84.0 °F 33.1 °F 16% 30.07 in 10.0 mi WNW 4.6 mph - N/A   Clear
10:53 AM 89.1 °F 26.1 °F 10% 30.07 in 10.0 mi NNW 6.9 mph - N/A   Clear
12:53 PM 93.9 °F 23.0 °F 8% 30.04 in 10.0 mi NNW 8.1 mph - N/A   Clear
1:53 PM 96.1 °F 21.9 °F 7% 30.02 in 10.0 mi NW 10.4 mph - N/A   Clear
2:53 PM 96.1 °F 25.0 °F 8% 30.00 in 10.0 mi WNW 9.2 mph - N/A   Clear
3:53 PM 98.1 °F 21.9 °F 7% 29.99 in 10.0 mi NW 15.0 mph - N/A   Clear
4:53 PM 97.0 °F 26.1 °F 8% 29.97 in 10.0 mi NNW 15.0 mph - N/A   Clear
5:53 PM 93.9 °F 30.0 °F 10% 29.97 in 10.0 mi NNW 15.0 mph - N/A   Clear
6:53 PM 91.0 °F 30.0 °F 11% 29.97 in 10.0 mi NW 15.0 mph - N/A   Clear
7:53 PM 84.9 °F 32.0 °F 15% 29.99 in 10.0 mi NNW 13.8 mph - N/A   Clear
8:53 PM 81.0 °F 27.0 °F 14% 30.01 in 10.0 mi NW 10.4 mph - N/A   Clear
9:53 PM 78.1 °F 30.9 °F 18% 30.02 in 10.0 mi NW 9.2 mph - N/A   Clear
10:53 PM 77.0 °F 34.0 °F 21% 30.02 in 10.0 mi NW 11.5 mph - N/A   Clear
11:53 PM 75.9 °F 30.0 °F 19% 30.02 in 10.0 mi NNW 9.2 mph - N/A   Clear